Location: Grand Rapids
(42.9630°N, 85.6680°W)
Time: 03:07:03
(UTC-04:00)

A-11 Canister half - Pass Details

Date: 01 June 2024
Orbit: 1524 x 1684 km, 47.3° (Epoch: 21 June)

Event Time Altitude Azimuth Distance (km) Brightness Sun altitude
Rises 01:35:47 0° 293° (WNW) 4,721 11.9 -24.9°
Reaches altitude 10° 01:38:49 10° 293° (WNW) 3,753 11.3 -24.9°
Maximum altitude 01:48:21 79° 209° (SSW) 1,626 8.9 -24.9°
Drops below altitude 10° 01:58:12 10° 124° (SE) 3,870 10.8 -24.8°
Sets 02:01:22 0° 124° (ESE) 4,874 11.4 -24.7°
